Tracking 30308 objects as of 19-Apr-2025
HD Live streaming from Space Station
objects crossing your sky now

SAKURA 2B (CS-2B)

Track SAKURA 2B (CS-2B) now!
SAKURA 2B (CS-2B) is classified as:


NORAD ID: 14248
Int'l Code: 1983-081A
Perigee: 36,190.7 km
Apogee: 36,223.5 km
Inclination: 11.7 °
Period: 1,457.3 minutes
Semi major axis: 42578 km
RCS: 8.9693 m2 (large)
Launch date: August 5, 1983
Source: Japan (JPN)
Launch site: TANEGASHIMA SPACE CENTER (TNSTA)
Your satellite tracking list
Your tracking list is empty




NASA's NSSDC Master Catalog

Two Line Element Set (TLE):
1 14248U 83081A   25107.42368770 -.00000244  00000-0  00000+0 0  9991
2 14248  11.7293 327.2443 0003846  52.8417 142.6231  0.98815130119541
Source of the keplerian elements: AFSPC